PST,Max TemperatureF,Mean TemperatureF,Min TemperatureF,Max Dew PointF,MeanDew PointF,Min DewpointF,Max Humidity, Mean Humidity, Min Humidity, Max Sea Level PressureIn, Mean Sea Level PressureIn, Min Sea Level PressureIn, Max VisibilityMiles, Mean VisibilityMiles, Min VisibilityMiles, Max Wind SpeedMPH, Mean Wind SpeedMPH, Max Gust SpeedMPH,PrecipitationIn, CloudCover, Events, WindDirDegrees
2012-12-1,51,49,46,48,46,44,100,93,82,29.49,29.39,29.20,6,3,1,22,11,37,1.19,8,Rain-Thunderstorm,178
2012-12-2,51,46,41,46,44,40,100,93,77,29.70,29.38,29.16,7,4,1,16,6,28,0.58,7,Rain-Thunderstorm,201
2012-12-3,51,46,41,50,46,41,100,93,86,29.92,29.78,29.50,7,3,1,24,8,33,1.38,8,Rain,170
2012-12-4,52,47,42,52,44,35,100,90,61,29.84,29.61,29.33,6,3,1,25,12,38,0.67,8,Rain,204
2012-12-5,47,41,35,41,39,35,96,88,72,30.16,30.11,29.87,7,4,1,23,5,30,0.33,7,Rain,199
2012-12-6,46,42,38,43,41,38,100,92,81,30.15,30.08,30.05,7,4,1,13,5,18,0.62,8,Rain,234
2012-12-7,47,42,37,43,39,33,100,87,58,30.18,30.06,29.99,7,4,2,22,8,28,0.35,7,Rain,270
2012-12-8,43,39,35,41,37,34,100,96,93,30.32,30.23,30.17,7,4,0,8,2,12,0.17,7,Fog-Rain,78
2012-12-9,47,43,38,46,42,37,100,97,90,30.37,30.29,30.23,8,2,0,10,5,17,0.25,8,Fog-Rain,88
2012-12-10,48,43,37,47,41,37,100,98,86,30.43,30.33,30.06,8,3,0,9,1,14,T,7,Fog-Rain,114
2012-12-11,48,45,41,46,43,41,100,95,89,30.04,29.68,29.53,7,3,0,15,4,21,0.93,8,Fog-Rain,174
2012-12-12,49,42,34,43,39,35,100,95,76,30.01,29.83,29.61,8,5,1,8,2,10,0.01,6,Rain,73
2012-12-13,43,41,39,40,39,36,100,92,81,30.03,29.87,29.74,8,5,2,10,4,16,0.55,8,Rain,127
2012-12-14,45,38,31,41,36,30,100,97,74,29.91,29.84,29.76,8,3,0,7,2,9,T,4,Fog-Rain,72
2012-12-15,41,39,36,39,37,33,100,92,82,29.82,29.58,29.48,8,3,1,21,8,33,1.19,8,Rain,186
2012-12-16,47,41,34,45,38,34,100,93,85,29.70,29.21,28.85,6,3,1,18,7,26,1.13,8,Rain,130
2012-12-17,43,39,34,41,36,29,96,84,51,29.83,29.36,28.87,8,4,1,28,13,40,0.50,7,Rain-Snow-Thunderstorm,275
2012-12-18,40,36,31,36,33,30,100,94,85,29.94,29.88,29.81,7,5,2,15,5,24,0.08,5,Rain-Snow,130
2012-12-19,42,39,35,41,38,34,100,95,87,29.76,29.52,29.45,7,2,0,22,12,36,2.68,8,Fog-Rain-Snow-Thunderstorm,150
2012-12-20,41,39,36,39,37,35,100,96,84,29.75,29.57,29.45,7,4,2,16,5,24,0.41,8,Rain,137
2012-12-21,42,38,34,40,37,33,100,94,87,29.71,29.66,29.60,7,4,1,16,7,24,0.25,7,Rain,109
2012-12-22,45,40,35,41,38,34,100,92,81,29.64,29.48,29.38,7,4,0,22,8,35,0.90,8,Fog-Rain,139
2012-12-23,43,40,37,39,37,36,100,95,81,29.82,29.67,29.60,7,4,1,16,6,25,0.60,7,Rain,119
2012-12-24,44,38,32,43,37,30,100,96,89,30.12,30.03,29.82,7,4,0,10,4,15,0.06,6,Fog-Rain,98
2012-12-25,46,42,37,43,39,36,100,94,81,29.94,29.61,29.52,6,3,1,15,8,22,1.12,8,Rain,105
2012-12-26,48,44,39,46,42,39,100,98,87,29.93,29.69,29.60,6,2,0,16,6,24,0.85,8,Fog-Rain,162
2012-12-27,46,42,37,43,40,37,100,97,87,30.12,30.05,29.93,7,4,2,9,2,12,0.13,8,Rain,95
2012-12-28,45,43,40,45,42,39,100,96,93,30.14,30.08,30.06,7,4,2,8,5,10,0.37,8,Rain,78
2012-12-29,45,40,35,44,40,35,100,96,87,30.21,30.16,30.13,7,5,1,9,3,12,T,7,Rain,65
2012-12-30,47,41,34,39,37,33,100,90,73,30.30,30.25,30.20,7,6,4,8,2,9,0.00,6,,71
2012-12-31,41,37,33,39,36,33,100,95,87,30.43,30.31,30.22,6,4,2,9,3,13,0.23,8,Rain,66